Weather History for Binghamton, NY

Change the Weather History Date:

Thursday, September 5, 2013

  Actual Average Record
Temperature  
Mean Temperature 56 °F 63 °F  
Max Temperature 65 °F 72 °F 87 °F (1983)
Min Temperature 46 °F 55 °F 38 °F (2000)
Degree Days  
Heating Degree Days 9 3  
Month to date heating degree days 13 15  
Since 1 July heating degree days 64 78  
Cooling Degree Days 0 2  
Month to date cooling degree days 17 10  
Year to date cooling degree days 444 358  
Growing Degree Days 6 (Base 50)    
Moisture  
Dew Point 47 °F    
Average Humidity 65    
Maximum Humidity 86    
Minimum Humidity 44    
Precipitation  
Precipitation 0.04 in 0.11 in 0.86 in (1986)
Month to date precipitation 0.80 0.57  
Year to date precipitation 31.09 26.78  
Snow  
Snow 0.00 in 0.00 in 0.00 in (2002)
Month to date snowfall 0.0 0.0  
Since 1 July snowfall 0.0 0.0  
Since 1 September snowfall 0.0 0.0  
Snow Depth 0.00 in    
Sea Level Pressure  
Sea Level Pressure 30.07 in    
Wind  
Wind Speed 9 mph (NW)    
Max Wind Speed 18 mph    
Max Gust Speed 24 mph    
Visibility 10 miles    
Events Rain    
T = Trace of Precipitation, MM = Missing Value Source: NWS Daily Summary

Daily Weather History Graph

Daily Weather History Graph

Search for Another Location

Airport:

Trip Planner

Search our weather history database for the weather conditions in past years. The results will help you decide how hot, cold, wet, or windy it might be!

Date:

Astronomy

Sep. 05, 2013 Rise Set
Actual Time 6:33 AM EDT 7:30 PM EDT
Civil Twilight 6:05 AM EDT 7:59 PM EDT
Nautical Twilight 5:31 AM EDT 8:32 PM EDT
Astronomical Twilight 4:55 AM EDT 9:08 PM EDT
Moon 6:44 AM EDT (9/5) 7:19 PM EDT (9/5)
Length of Visible Light 13h 53m
Length of Day
12h 56m
New Moon, 0% of the Moon is Illuminated
Sep 5
New Moon
Sep 12
First Quarter
Sep 19
Full
Sep 26
Last Quarter
Oct 4
New

Hourly Weather History & Observations

Time (EDT) Temp. Dew Point Humidity Pressure Visibility Wind Dir Wind Speed Gust Speed Precip Events Conditions
12:53 AM 63.0 °F 53.1 °F 70% 29.97 in 10.0 mi West 6.9 mph - N/A   Overcast
1:53 AM 63.0 °F 53.1 °F 70% 29.96 in 10.0 mi West 5.8 mph - 0.00 in   Overcast
2:53 AM 61.0 °F 54.0 °F 78% 29.96 in 10.0 mi NW 5.8 mph - N/A   Overcast
3:17 AM 59.0 °F 55.4 °F 88% 29.99 in 4.0 mi NW 6.9 mph - 0.01 in Rain Rain
3:53 AM 57.9 °F 55.9 °F 93% 29.96 in 5.0 mi West 9.2 mph - 0.03 in Rain Light Rain
4:53 AM 57.9 °F 55.9 °F 93% 29.97 in 10.0 mi West 9.2 mph - 0.01 in   Overcast
5:02 AM 59.0 °F 55.4 °F 88% 30.00 in 10.0 mi West 6.9 mph - N/A   Overcast
5:09 AM 59.0 °F 55.4 °F 88% 30.00 in 10.0 mi West 6.9 mph - N/A   Overcast
5:39 AM 57.2 °F 55.4 °F 94% 30.01 in 10.0 mi NNW 5.8 mph - N/A   Overcast
5:53 AM 57.0 °F 53.1 °F 87% 30.00 in 10.0 mi NW 8.1 mph - N/A   Overcast
6:26 AM 55.4 °F 51.8 °F 88% 30.02 in 10.0 mi NNW 8.1 mph - N/A   Mostly Cloudy
6:53 AM 55.0 °F 51.1 °F 86% 30.04 in 10.0 mi NW 10.4 mph - N/A   Mostly Cloudy
7:53 AM 55.0 °F 51.1 °F 86% 30.06 in 10.0 mi NNW 8.1 mph - N/A   Clear
8:53 AM 55.9 °F 46.9 °F 72% 30.06 in 10.0 mi North 6.9 mph - N/A   Clear
9:53 AM 59.0 °F 43.0 °F 55% 30.08 in 10.0 mi North 10.4 mph - N/A   Mostly Cloudy
10:53 AM 61.0 °F 42.1 °F 50% 30.09 in 10.0 mi NNW 12.7 mph - N/A   Clear
11:53 AM 61.0 °F 39.9 °F 46% 30.09 in 10.0 mi North 13.8 mph - N/A   Clear
12:53 PM 64.0 °F 42.1 °F 45% 30.09 in 10.0 mi North 10.4 mph 18.4 mph N/A   Mostly Cloudy
1:53 PM 64.0 °F 42.1 °F 45% 30.09 in 10.0 mi NNW 9.2 mph 24.2 mph N/A   Scattered Clouds
2:53 PM 63.0 °F 41.0 °F 45% 30.09 in 10.0 mi WNW 9.2 mph 18.4 mph N/A   Mostly Cloudy
3:53 PM 62.1 °F 42.1 °F 48% 30.09 in 10.0 mi NNW 6.9 mph - N/A   Mostly Cloudy
4:53 PM 63.0 °F 44.1 °F 50% 30.10 in 10.0 mi NW 12.7 mph - N/A   Partly Cloudy
5:53 PM 61.0 °F 43.0 °F 52% 30.13 in 10.0 mi NNW 10.4 mph - N/A   Clear
6:53 PM 57.9 °F 39.9 °F 51% 30.15 in 10.0 mi NNW 12.7 mph - N/A   Clear
7:53 PM 54.0 °F 39.0 °F 57% 30.17 in 10.0 mi NNW 10.4 mph - N/A   Clear
8:53 PM 51.1 °F 39.9 °F 66% 30.19 in 10.0 mi North 9.2 mph - N/A   Clear
9:53 PM 50.0 °F 39.9 °F 68% 30.20 in 10.0 mi North 6.9 mph - N/A   Clear
10:53 PM 48.9 °F 39.0 °F 69% 30.22 in 10.0 mi NNW 6.9 mph - N/A   Clear
11:53 PM 48.0 °F 39.9 °F 74% 30.22 in 10.0 mi WNW 3.5 mph - N/A   Clear